DL3NDS-13 Weather Reports


time (UTC)temp
C
wind
direction
speed
KPH
gust
KPH
rain 1hr
cm
rain 24hr
cm
rain mn
cm
humidity
%
barometer
mb
20211205102226 1 256 6.4 14.5 0.00 0.58 0.00 86 1001.9
20211205101226 1 286 4.8 9.7 0.00 0.58 0.00 86 1001.7
20211205100226 1 281 4.8 19.3 0.00 0.58 0.00 86 1001.9
20211205095226 1 271 9.7 19.3 0.00 0.58 0.00 86 1001.7
20211205094226 1 257 6.4 17.7 0.00 0.58 0.00 86 1002.0
20211205093226 1 277 4.8 14.5 0.00 0.58 0.00 87 1001.9
20211205092226 1 247 6.4 17.7 0.00 0.58 0.00 88 1001.9
20211205091226 1 215 1.6 12.9 0.00 0.58 0.00 89 1001.7
20211205090226 1 0 0.0 4.8 0.00 0.58 0.00 89 1001.7
20211205085226 1 0 0.0 9.7 0.00 0.58 0.00 89 1001.7
20211205084226 1 216 1.6 9.7 0.00 0.58 0.00 90 1001.6
20211205083225 1 0 0.0 12.9 0.00 0.58 0.00 90 1001.5
20211205082226 1 216 1.6 12.9 0.00 0.58 0.00 90 1001.4
20211205081226 1 206 4.8 9.7 0.00 0.58 0.00 90 1001.4
20211205080226 1 199 4.8 12.9 0.00 0.58 0.00 90 1001.4
20211205075226 1 260 6.4 19.3 0.00 0.58 0.00 90 1001.2
20211205074226 1 256 4.8 9.7 0.00 0.58 0.00 90 1001.1
20211205073226 1 0 0.0 12.9 0.00 0.58 0.00 90 1001.1
20211205072226 1 225 4.8 17.7 0.00 0.58 0.00 90 1001.1
20211205071226 1 258 4.8 14.5 0.00 0.58 0.00 90 1000.9
20211205070226 1 244 6.4 12.9 0.00 0.58 0.00 90 1000.7
20211205065225 1 228 6.4 19.3 0.00 0.58 0.00 90 1000.7
20211205064226 1 227 1.6 19.3 0.00 0.58 0.00 90 1000.7
20211205063226 1 241 9.7 14.5 0.00 0.58 0.00 89 1000.6
20211205062226 1 250 4.8 17.7 0.00 0.58 0.00 89 1000.4
20211205061225 1 215 1.6 19.3 0.00 0.58 0.00 89 1000.2
20211205060226 1 266 4.8 22.5 0.00 0.58 0.00 89 1000.4
20211205055226 1 281 12.9 19.3 0.00 0.58 0.00 88 1000.2
20211205054225 1 0 0.0 6.4 0.00 0.58 0.00 88 1000.4
20211205053225 1 231 6.4 22.5 0.00 0.58 0.00 88 1000.2
20211205052225 1 259 4.8 32.2 0.00 0.58 0.00 87 1000.2
20211205051226 1 269 4.8 12.9 0.00 0.58 0.00 88 1000.2
20211205050225 1 267 4.8 17.7 0.00 0.58 0.00 88 999.9
20211205045226 1 278 4.8 35.4 0.00 0.58 0.00 88 999.7
20211205044225 1 260 6.4 30.6 0.00 0.58 0.00 89 999.7
20211205043225 1 247 14.5 32.2 0.00 0.58 0.00 89 999.5
20211205042226 1 255 9.7 35.4 0.00 0.58 0.00 89 999.5
20211205041225 1 242 9.7 38.6 0.00 0.58 0.00 89 999.2
20211205040225 1 262 19.3 35.4 0.00 0.58 0.00 88 999.2
20211205035225 1 274 17.7 38.6 0.00 0.58 0.00 88 999.2
20211205034225 1 256 17.7 38.6 0.00 0.58 0.00 89 999.2
20211205033225 1 268 19.3 45.1 0.00 0.58 0.00 89 999.2
20211205032225 1 254 25.7 45.1 0.00 0.58 0.00 89 999.2
20211205031225 1 268 25.7 45.1 0.00 0.58 0.00 89 999.2
20211205030225 1 259 22.5 40.2 0.00 0.58 0.00 89 999.2
20211205025225 1 267 14.5 40.2 0.00 0.58 0.00 89 999.1
20211205024225 1 261 27.4 51.5 0.00 0.58 0.00 89 999.2
20211205023225 1 273 19.3 38.6 0.00 0.58 0.00 89 999.2
20211205022225 1 259 17.7 45.1 0.00 0.58 0.00 89 999.2
20211205021225 1 265 14.5 51.5 0.00 0.58 0.00 89 999.1
20211205020225 1 256 9.7 43.5 0.00 0.58 0.00 89 999.1
20211205015225 1 258 32.2 59.5 0.00 0.58 0.00 89 999.0
20211205014225 1 247 27.4 48.3 0.00 0.58 0.00 90 999.0
20211205013225 1 262 17.7 38.6 0.00 0.58 0.00 91 999.1
20211205012225 1 244 25.7 53.1 0.00 0.58 0.00 91 998.7
20211205011225 1 267 22.5 53.1 0.00 0.58 0.00 91 998.7
20211205010225 1 265 25.7 51.5 0.00 0.58 0.00 91 998.2
20211205005225 1 269 22.5 40.2 0.03 0.58 0.00 92 997.9
20211205004225 1 274 14.5 43.5 0.05 0.58 0.00 92 997.6
20211205003225 1 261 22.5 43.5 0.05 0.56 0.00 92 997.6
20211205002225 1 269 22.5 43.5 0.05 0.56 0.00 92 997.6
20211205001225 1 256 17.7 40.2 0.05 0.53 0.00 93 997.2
20211205000226 1 274 27.4 45.1 0.08 0.53 0.00 93 997.2
20211204235225 1 267 17.7 40.2 0.08 0.53 0.00 93 997.2
20211204234225 1 272 19.3 38.6 0.10 0.51 0.00 93 997.2
20211204233225 1 267 25.7 45.1 0.10 0.48 0.00 94 997.2
20211204232225 1 275 17.7 45.1 0.18 0.48 0.00 94 997.0
20211204231225 1 267 14.5 53.1 0.13 0.43 0.00 94 996.9
20211204230225 1 272 22.5 59.5 0.18 0.43 0.00 94 995.9
20211204225225 1 254 27.4 59.5 0.18 0.41 0.00 95 995.7
20211204224225 1 263 35.4 53.1 0.13 0.36 0.00 95 995.9
20211204223225 1 259 32.2 56.3 0.13 0.36 0.00 95 995.7
20211204222225 1 258 14.5 40.2 0.10 0.30 0.00 96 995.4
20211204221225 2 265 17.7 32.2 0.10 0.28 0.00 96 995.4
20211204220225 2 255 22.5 40.2 0.08 0.25 0.00 96 995.2
20211204215225 1 271 12.9 30.6 0.05 0.23 0.00 96 995.2
20211204214225 1 256 6.4 17.7 0.05 0.20 0.00 96 995.0
20211204213225 1 262 4.8 14.5 0.05 0.18 0.00 96 994.7
20211204212225 1 243 12.9 25.7 0.05 0.18 0.00 96 994.5
20211204211225 1 255 6.4 12.9 0.05 0.18 0.00 96 994.2
20211204210225 1 237 6.4 14.5 0.05 0.13 0.00 96 994.1
20211204205225 1 238 4.8 12.9 0.05 0.13 0.00 96 994.1
20211204204225 1 210 4.8 12.9 0.05 0.10 0.00 96 994.0
20211204203225 0 210 1.6 12.9 0.05 0.08 0.00 96 993.9
20211204202225 0 211 4.8 9.7 0.05 0.05 0.00 96 993.7
20211204201225 0 0 0.0 6.4 0.03 0.05 0.00 95 994.0
20211204200225 0 0 0.0 4.8 0.00 0.03 0.00 95 993.9
20211204195225 0 210 1.6 4.8 0.00 0.03 0.00 95 993.7
20211204194225 0 0 0.0 9.7 0.00 0.00 0.00 95 993.9
20211204193225 0 211 4.8 9.7 0.00 0.00 0.00 95 993.9
20211204192225 0 0 0.0 1.6 0.00 0.00 0.00 95 993.9
20211204191225 0 0 0.0 1.6 0.00 0.00 0.00 95 993.9
20211204190225 0 0 0.0 0.0 0.00 0.00 0.00 95 993.7
20211204185225 0 0 0.0 1.6 0.00 0.00 0.00 95 994.0
20211204184225 0 0 0.0 6.4 0.00 0.00 0.00 95 993.7
20211204183225 0 0 0.0 4.8 0.00 0.00 0.00 95 993.7
20211204182225 0 0 0.0 12.9 0.00 0.00 0.00 95 994.1
20211204181225 0 233 6.4 22.5 0.00 0.00 0.00 95 994.5
20211204180225 0 199 1.6 6.4 0.00 0.00 0.00 95 994.5
20211204175225 0 0 0.0 1.6 0.00 0.00 0.00 95 994.4
20211204174225 0 0 0.0 1.6 0.00 0.00 0.00 95 994.2
20211204173225 0 0 0.0 1.6 0.00 0.00 0.00 95 994.0
20211204172225 0 0 0.0 0.0 0.00 0.00 0.00 95 993.9
20211204171225 0 0 0.0 6.4 0.00 0.00 0.00 95 993.9
20211204170225 0 0 0.0 6.4 0.00 0.00 0.00 95 994.0
20211204165225 0 96 1.6 9.7 0.00 0.00 0.00 95 994.0
20211204164225 0 95 4.8 14.5 0.00 0.00 0.00 95 994.1
20211204163225 0 103 4.8 17.7 0.00 0.00 0.00 95 994.2
20211204162225 0 101 6.4 17.7 0.00 0.00 0.00 95 994.2
20211204161225 0 94 4.8 17.7 0.00 0.00 0.00 95 994.4
20211204160225 0 104 4.8 17.7 0.00 0.00 0.00 95 994.5
20211204155225 0 102 4.8 14.5 0.00 0.00 0.00 95 994.4
20211204154225 0 108 1.6 9.7 0.00 0.00 0.00 95 994.5
20211204153225 0 116 1.6 12.9 0.00 0.00 0.00 95 994.6
20211204152225 0 102 4.8 12.9 0.00 0.00 0.00 95 994.7
20211204151225 0 115 1.6 9.7 0.00 0.00 0.00 95 994.7
20211204150225 0 101 4.8 9.7 0.00 0.00 0.00 95 994.7
20211204145225 0 115 1.6 6.4 0.00 0.00 0.00 95 994.7
20211204144225 0 121 1.6 9.7 0.00 0.00 0.00 94 994.7
20211204143225 0 115 1.6 12.9 0.00 0.00 0.00 94 994.7
20211204142225 0 105 1.6 9.7 0.00 0.00 0.00 94 994.7
20211204141225 0 101 4.8 9.7 0.00 0.00 0.00 94 994.6
20211204140225 0 0 0.0 12.9 0.00 0.00 0.00 94 994.7
20211204135225 0 117 1.6 14.5 0.00 0.00 0.00 94 994.7
20211204134225 0 130 4.8 9.7 0.00 0.00 0.00 94 994.9
20211204133225 0 120 4.8 9.7 0.00 0.00 0.00 94 995.0
20211204132225 0 107 1.6 6.4 0.00 0.00 0.00 94 995.2
20211204131225 0 0 0.0 1.6 0.00 0.00 0.00 94 995.2
20211204130225 0 0 0.0 6.4 0.00 0.00 0.00 94 995.4
20211204125225 0 0 0.0 6.4 0.00 0.00 0.00 94 995.5
20211204124225 0 103 1.6 9.7 0.00 0.00 0.00 94 995.4
20211204123225 0 106 1.6 9.7 0.00 0.00 0.00 94 995.6
20211204122225 0 106 1.6 12.9 0.00 0.00 0.00 94 995.7
20211204121225 0 124 1.6 17.7 0.00 0.00 0.00 94 995.9
20211204120225 0 134 4.8 19.3 0.00 0.00 0.00 94 996.2
20211204115225 0 140 1.6 9.7 0.00 0.00 0.00 93 996.2
20211204114225 0 113 9.7 17.7 0.00 0.00 0.00 93 996.4
20211204113225 0 140 1.6 14.5 0.00 0.00 0.00 93 996.5
20211204112225 0 206 1.6 9.7 0.00 0.00 0.00 93 996.7
20211204111225 0 206 1.6 6.4 0.00 0.00 0.00 93 996.9
20211204110225 -1 206 1.6 9.7 0.00 0.00 0.00 93 997.0
20211204105225 0 206 1.6 12.9 0.00 0.00 0.00 93 997.2
20211204104225 -1 246 4.8 9.7 0.00 0.00 0.00 93 997.4
20211204103225 -1 206 1.6 6.4 0.00 0.00 0.00 93 997.5